Montana Department of Transportation

Main Content

Accidents and Incidents Report

Hourly Weather Roundup

ASUS45 KTFX 311619
RWRMT 
MONTANA HOURLY WEATHER ROUNDUP
NATIONAL WEATHER SERVICE GREAT FALLS MT
1019 AM MDT SUN AUG 31 2014

NOTE: "FAIR" INDICATES FEW OR NO CLOUDS BELOW 12000 FEET WITH NO
SIGNIFICANT WEATHER AND/OR OBSTRUCTIONS TO VISIBILITY.

* THESE STATIONS ARE NOT UNDER NWS QUALITY CONTROL. THEY DO NOT
   REPORT WEATHER SUCH AS PRECIPITATION OR FOG.

MTZ001.007-043-311700-
WEST OF THE DIVIDE
CITY           SKY/WX    TMP DP  RH WIND       PRES   REMARKS
KALISPELL      CLOUDY    59  46  62 S10       29.91R 
MISSOULA       CLOUDY    55  52  90 CALM      29.97S 
BUTTE          PTSUNNY   52  43  72 NW13      30.01R 
MULLAN PASS    FOG       41  41 100 VRB5      30.01R VSB M1/4 
* LINCOLN      N/A       52  44  74 S2         N/A   
* LOOKOUT PASS N/A       47  46  96 N2G8       N/A   
* POLSON       N/A       57  49  75 SE2        N/A   
* RONAN APT    PTSUNNY   61  46  58 N/A        N/A   
* SEELEY LAKE  N/A       50  49  96 W1         N/A   
* THOMP F APT  PTCLDY    55  54  96 N/A        N/A   
--------------------------------

MTZ008-052.055-311700-
SOUTHWEST MONTANA
CITY           SKY/WX    TMP DP  RH WIND       PRES   REMARKS
BOZEMAN        CLOUDY    55  48  77 W5        29.96S 
DILLON         CLOUDY    55  45  69 E5        29.99R 
W YELLOWSTONE  CLOUDY    46  41  83 S10       30.04R 
* THREE FORKS  PTSUNNY   55  36  49 N/A        N/A   
* BOULDER HILL N/A       52  36  55 E1         N/A   
* MONIDA PASS  N/A       47  42  83 NW10G16    N/A   
* RAYNOLDS PAS N/A       46  35  66 SW7        N/A   
* WHITEHALL    N/A       54  50  86 SW4        N/A   
* WISE RIVER   N/A       49  43  80 W5         N/A   
--------------------------------

MTZ009.010-012-014-046-048-049-054-311700-
EAST SLOPES AND CENTRAL MONTANA
CITY           SKY/WX    TMP DP  RH WIND       PRES   REMARKS
CUT BANK       PTSUNNY   63  39  41 W17G25    29.83S 
GREAT FALLS    CLOUDY    61  43  52 SW14      29.85S 
HELENA         PTCLDY    63  43  48 W13G20    29.94R 
MALMSTROM AFB  CLOUDY    61  43  52 SW14      29.87S 
* CONRAD       PTSUNNY   63  45  52 SW15G22    N/A   
* EAST GLACIER N/A       53  41  64 W14G20     N/A   
* MONARCH      N/A       55  34  45 W12G17     N/A   
* PENDROY      N/A       56  39  53 W13        N/A   
* ROGERS PASS  N/A       50  41  71 SE12G26    N/A   
* SAINT MARY   N/A       55  40  57 SW6G14     N/A   
* SWEET GRASS  N/A       58  38  47 NW15G21    N/A   
* WHITE SULPH  N/A       56  45  67 N4         N/A   
--------------------------------

MTZ011-013-016-021-035-040-045-047-050-051-311700-
NORTH CENTRAL MONTANA
CITY           SKY/WX    TMP DP  RH WIND       PRES   REMARKS
HAVRE          PTSUNNY   63  43  48 SW14      29.78S 
LEWISTOWN      CLOUDY    57  41  55 W6        29.88R 
* CHINOOK      CLOUDY    63  46  54 W8        29.78R 
* FORT BENTON  CLOUDY    61  45  56 SW5       29.84S 
* CHESTER      N/A       61  40  46 W13G20     N/A   
* DENTON       N/A       64  41  43 W16        N/A   
* GEYSER       N/A       59  40  50 W18G23     N/A   
* JUDITH GAP   N/A       58  41  53 NE2        N/A   
* LOMA         N/A       56  44  64 SW2        N/A   
--------------------------------

MTZ017.020-022.027-061-062-311700-
NORTHEAST MONTANA
CITY           SKY/WX    TMP DP  RH WIND       PRES   REMARKS
GLASGOW        PTSUNNY   61  55  81 W5        29.75S 
GLENDIVE       TSTM      59  54  84 N7G18     29.76R 
JORDAN         CLOUDY    63  52  68 N12       29.78R 
SIDNEY         PTSUNNY   66  59  78 CALM      29.73S 
WOLF POINT     PTSUNNY   64  54  70 SW7       29.75R 
* BEAVER HILL  N/A       63  59  87 SW9        N/A   
* CIRCLE       N/A       62  59  90 NW3G8      N/A   
* LINDSAY DVD  N/A       59  51  75 VRB3       N/A   
* NAVAJO       N/A       64  52  65 NE2        N/A   
--------------------------------

MTZ028.042-056.058-311700-
SOUTHCENTRAL AND SOUTHEAST MONTANA
CITY           SKY/WX    TMP DP  RH WIND       PRES   REMARKS
BAKER          CLOUDY    63  57  81 W7        29.78R 
BILLINGSPTSUNNY   64  48  56 SW6       29.87R 
LIVINGSTON     PTSUNNY   57  45  64 W8G18     29.94R 
MILES CITY     PTSUNNY   66 N/A N/A NW8       29.76S 
* LAUREL APT   PTSUNNY   66  41  40 NW8        N/A   
* ROUNDUP APT  CLOUDY    61  46  58 S5         N/A   
* ALZADA       N/A       62  53  73 W6         N/A   
* HYSHAM       N/A       60  47  62 W5         N/A   
* LAME DEER    N/A       56  49  77 W12        N/A   
* REED POINT   N/A       61  44  54 W12G17     N/A   
* ROSCOE HILL  N/A       61  35  38 NW3G9      N/A   
--------------------------------

REGIONAL REPORTS...DAKOTAS
CITY           SKY/WX    TMP DP  RH WIND       PRES   REMARKS
WILLISTON      CLOUDY    63  57  81 W5        29.71S 
DICKINSON      CLOUDY    66  57  73 NW10      29.72R 
BEACH          N/A       66  63  90 W8        29.76R 
CROSBY         PTSUNNY   59  59 100 NW9       29.71R 
TIOGA          PTSUNNY   63  63 100 NW8       29.74R 
WATFORD CITY   SUNNY     64  59  84 W6        29.70S 
BISMARCK       CLOUDY    70  63  79 NW10      29.66R 
GRAND FORKS    CLOUDY    64  63  97 CALM      29.55S VSB 3    
FARGO          CLOUDY    70  64  81 S14       29.55S 
BUFFALO SD     CLOUDY    63  57  81 W8        29.72R 
RAPID CITY     CLOUDY    64  57  78 CALM      29.81R 
--------------------------------

REGIONAL REPORTS...WYOMING/IDAHO/WASHINGTON
CITY           SKY/WX    TMP DP  RH WIND       PRES   REMARKS
GILLETTE       CLOUDY    59  52  78 CALM      29.84S 
SHERIDAN       CLOUDY    61  50  67 N6        29.86R 
CODY           CLOUDY    52  48  86 W5        29.95R 
YELLOWSTONE LA CLOUDY    41  39  93 W3        30.08R 
SALMON         CLOUDY    55  48  77 CALM      30.01R 
MULLAN PASS    FOG       41  41 100 VRB5      30.01S VSB M1/4 
SAND POINT     CLOUDY    55  55 100 W3        29.94R 
SPOKANE        PTSUNNY   55  46  72 SW14G20   29.97R 
--------------------------------

REGIONAL REPORTS...ALBERTA
CITY           SKY/WX    TMP DP  RH WIND       PRES   REMARKS
CALGARY        PTSUNNY   55  39  55 NW9       29.84R 
LETHBRIDGE     SUNNY     63  37  38 W25       29.80R 
MEDICINE HAT   SUNNY     57  50  78 NW5       29.77R 
EDMONTON       PTSUNNY   57  45  64 W9        29.77S 
WATERTON GATE  N/A       61  36  39 W14        N/A   
CARDSTON       N/A       59  43  56 NW5        N/A   
--------------------------------

REGIONAL REPORTS...SASKATCHEWAN
CITY           SKY/WX    TMP DP  RH WIND       PRES   REMARKS
SWIFT CURRENT  PTCLDY    64  43  47 N5        29.73S 
REGINA         SUNNY     63  52  68 NW7       29.71S 
VAL MARIE      N/A       63  52  68 W9         N/A   
ASSINIBOIA     N/A       64  48  56 W3         N/A   
CORONACH       N/A       64  52  65 NW3        N/A   

--------------------------------